Time,TemperatureF,DewpointF,PressureIn,WindDirection,WindDirectionDegrees,WindSpeedMPH,WindSpeedGustMPH,Humidity,HourlyPrecipIn,Conditions,Clouds,dailyrainin,SolarRadiationWatts/m^2,SoftwareType,DateUTC
2013-03-30 00:02:00,42.0,22.0,-100.00,WSW,254,5.0,11.0,44,0.00,,,-99.99,1.000000,,2013-03-30 06:02:00,
2013-03-30 00:12:00,42.0,22.0,-100.00,WSW,254,5.0,11.0,44,0.00,,,-99.99,1.000000,,2013-03-30 06:12:00,
2013-03-30 00:22:00,42.0,22.0,-100.00,WSW,254,5.0,11.0,44,0.00,,,-99.99,1.000000,,2013-03-30 06:22:00,
2013-03-30 00:42:00,41.0,22.0,-100.00,SE,144,3.0,12.0,46,0.00,,,0.00,1.000000,,2013-03-30 06:42:00,
2013-03-30 00:52:00,41.0,22.0,-100.00,SE,144,3.0,12.0,46,0.00,,,0.00,1.000000,,2013-03-30 06:52:00,
2013-03-30 01:02:00,41.0,22.0,-100.00,SE,144,3.0,12.0,46,0.00,,,0.00,1.000000,,2013-03-30 07:02:00,
2013-03-30 01:12:00,41.0,22.0,-100.00,SE,144,3.0,12.0,46,0.00,,,0.00,1.000000,,2013-03-30 07:12:00,
2013-03-30 01:22:00,41.0,22.0,-100.00,SE,144,3.0,12.0,46,0.00,,,0.00,1.000000,,2013-03-30 07:22:00,
2013-03-30 01:42:00,40.0,23.0,-100.00,SSE,160,3.0,12.0,51,0.00,,,0.00,1.000000,,2013-03-30 07:42:00,
2013-03-30 01:52:00,40.0,23.0,-100.00,SSE,160,3.0,12.0,51,0.00,,,0.00,1.000000,,2013-03-30 07:52:00,
2013-03-30 02:02:00,40.0,23.0,-100.00,SSE,160,3.0,12.0,51,0.00,,,0.00,1.000000,,2013-03-30 08:02:00,
2013-03-30 02:12:00,40.0,23.0,-100.00,SSE,160,3.0,12.0,51,0.00,,,0.00,1.000000,,2013-03-30 08:12:00,
2013-03-30 02:21:00,40.0,23.0,-100.00,SSE,160,3.0,12.0,51,0.00,,,0.00,1.000000,,2013-03-30 08:21:00,
2013-03-30 02:42:00,41.0,21.0,-100.00,SSW,211,3.0,13.0,45,0.00,,,0.00,1.000000,,2013-03-30 08:42:00,
2013-03-30 02:53:00,41.0,21.0,-100.00,SSW,211,3.0,13.0,45,0.00,,,0.00,1.000000,,2013-03-30 08:53:00,
2013-03-30 03:02:00,41.0,21.0,-100.00,SSW,211,3.0,13.0,45,0.00,,,0.00,1.000000,,2013-03-30 09:02:00,
2013-03-30 03:12:00,41.0,21.0,-100.00,SSW,211,3.0,13.0,45,0.00,,,0.00,1.000000,,2013-03-30 09:12:00,
2013-03-30 03:22:00,41.0,21.0,-100.00,SSW,211,3.0,13.0,45,0.00,,,0.00,1.000000,,2013-03-30 09:22:00,
2013-03-30 03:43:00,42.0,22.0,-100.00,West,266,7.0,18.0,45,0.00,,,0.00,1.000000,,2013-03-30 09:43:00,
2013-03-30 03:53:00,42.0,22.0,-100.00,West,266,7.0,18.0,45,0.00,,,0.00,1.000000,,2013-03-30 09:53:00,
2013-03-30 04:02:00,42.0,22.0,-100.00,West,266,7.0,18.0,45,0.00,,,0.00,1.000000,,2013-03-30 10:02:00,
2013-03-30 04:13:00,42.0,22.0,-100.00,West,266,7.0,18.0,45,0.00,,,0.00,1.000000,,2013-03-30 10:13:00,
2013-03-30 04:23:00,42.0,22.0,-100.00,West,266,7.0,18.0,45,0.00,,,0.00,1.000000,,2013-03-30 10:23:00,
2013-03-30 04:42:00,42.0,22.0,-100.00,West,260,11.0,23.0,44,0.00,,,0.00,1.000000,,2013-03-30 10:42:00,
2013-03-30 04:52:00,42.0,22.0,-100.00,West,260,11.0,23.0,44,0.00,,,0.00,1.000000,,2013-03-30 10:52:00,
2013-03-30 05:03:00,42.0,22.0,-100.00,West,260,11.0,23.0,44,0.00,,,0.00,1.000000,,2013-03-30 11:03:00,
2013-03-30 05:12:00,42.0,22.0,-100.00,West,260,11.0,23.0,44,0.00,,,0.00,1.000000,,2013-03-30 11:12:00,
2013-03-30 05:22:00,42.0,22.0,-100.00,West,260,11.0,23.0,44,0.00,,,0.00,1.000000,,2013-03-30 11:22:00,
2013-03-30 05:43:00,41.0,20.0,-100.00,WSW,245,7.0,21.0,42,0.00,,,0.00,1.000000,,2013-03-30 11:43:00,
2013-03-30 05:53:00,41.0,20.0,-100.00,WSW,245,7.0,21.0,42,0.00,,,0.00,1.000000,,2013-03-30 11:53:00,
2013-03-30 06:02:00,41.0,20.0,-100.00,WSW,245,7.0,21.0,42,0.00,,,0.00,1.000000,,2013-03-30 12:02:00,
2013-03-30 06:12:00,41.0,20.0,-100.00,WSW,245,7.0,21.0,42,0.00,,,0.00,1.000000,,2013-03-30 12:12:00,
2013-03-30 06:22:00,41.0,20.0,-100.00,WSW,245,7.0,21.0,42,0.00,,,0.00,1.000000,,2013-03-30 12:22:00,
2013-03-30 06:43:00,40.0,19.0,-100.00,WSW,244,6.0,21.0,43,0.00,,,0.00,1.000000,,2013-03-30 12:43:00,
2013-03-30 06:53:00,40.0,19.0,-100.00,WSW,244,6.0,21.0,43,0.00,,,0.00,1.000000,,2013-03-30 12:53:00,
2013-03-30 07:02:00,40.0,19.0,-100.00,WSW,244,6.0,21.0,43,0.00,,,0.00,1.000000,,2013-03-30 13:02:00,
2013-03-30 07:12:00,40.0,19.0,-100.00,WSW,244,6.0,21.0,43,0.00,,,0.00,1.000000,,2013-03-30 13:12:00,
2013-03-30 07:22:00,40.0,19.0,-100.00,WSW,244,6.0,21.0,43,0.00,,,0.00,1.000000,,2013-03-30 13:22:00,
2013-03-30 07:43:00,40.0,19.0,-100.00,SSW,194,4.0,28.0,42,0.00,,,0.00,2.000000,,2013-03-30 13:43:00,
2013-03-30 07:53:00,40.0,19.0,-100.00,SSW,194,4.0,28.0,42,0.00,,,0.00,2.000000,,2013-03-30 13:53:00,
2013-03-30 08:02:00,40.0,19.0,-100.00,SSW,194,4.0,28.0,42,0.00,,,0.00,2.000000,,2013-03-30 14:02:00,
2013-03-30 08:11:00,40.0,19.0,-100.00,SSW,194,4.0,28.0,42,0.00,,,0.00,2.000000,,2013-03-30 14:11:00,
2013-03-30 08:43:00,45.0,18.0,-100.00,SW,222,8.0,18.0,34,0.00,,,0.00,84.000000,,2013-03-30 14:43:00,
2013-03-30 08:52:00,45.0,18.0,-100.00,SW,222,8.0,18.0,34,0.00,,,0.00,84.000000,,2013-03-30 14:52:00,
2013-03-30 09:02:00,45.0,18.0,-100.00,SW,222,8.0,18.0,34,0.00,,,0.00,84.000000,,2013-03-30 15:02:00,
2013-03-30 09:12:00,45.0,18.0,-100.00,SW,222,8.0,18.0,34,0.00,,,0.00,84.000000,,2013-03-30 15:12:00,
2013-03-30 09:22:00,45.0,18.0,-100.00,SW,222,8.0,18.0,34,0.00,,,0.00,84.000000,,2013-03-30 15:22:00,
2013-03-30 09:43:00,46.0,16.0,-100.00,West,262,10.0,22.0,30,0.00,,,0.00,281.000000,,2013-03-30 15:43:00,
2013-03-30 09:53:00,46.0,16.0,-100.00,West,262,10.0,22.0,30,0.00,,,0.00,281.000000,,2013-03-30 15:53:00,
2013-03-30 10:03:00,46.0,16.0,-100.00,West,262,10.0,22.0,30,0.00,,,0.00,281.000000,,2013-03-30 16:03:00,
2013-03-30 10:13:00,46.0,16.0,-100.00,West,262,10.0,22.0,30,0.00,,,0.00,281.000000,,2013-03-30 16:13:00,
2013-03-30 10:23:00,46.0,16.0,-100.00,West,262,10.0,22.0,30,0.00,,,0.00,281.000000,,2013-03-30 16:23:00,
2013-03-30 10:43:00,49.0,18.0,-100.00,West,265,8.0,21.0,29,0.00,,,0.00,448.000000,,2013-03-30 16:43:00,
2013-03-30 10:53:00,49.0,18.0,-100.00,West,265,8.0,21.0,29,0.00,,,0.00,448.000000,,2013-03-30 16:53:00,
2013-03-30 11:02:00,49.0,18.0,-100.00,West,265,8.0,21.0,29,0.00,,,0.00,448.000000,,2013-03-30 17:02:00,
2013-03-30 11:13:00,49.0,18.0,-100.00,West,265,8.0,21.0,29,0.00,,,0.00,448.000000,,2013-03-30 17:13:00,
2013-03-30 11:22:00,49.0,18.0,-100.00,West,265,8.0,21.0,29,0.00,,,0.00,448.000000,,2013-03-30 17:22:00,
2013-03-30 11:43:00,50.0,17.0,-100.00,West,269,10.0,25.0,27,0.00,,,0.00,604.000000,,2013-03-30 17:43:00,
2013-03-30 11:53:00,50.0,17.0,-100.00,West,269,10.0,25.0,27,0.00,,,0.00,604.000000,,2013-03-30 17:53:00,
2013-03-30 12:03:00,50.0,17.0,-100.00,West,269,10.0,25.0,27,0.00,,,0.00,604.000000,,2013-03-30 18:03:00,
2013-03-30 12:12:00,50.0,17.0,-100.00,West,269,10.0,25.0,27,0.00,,,0.00,604.000000,,2013-03-30 18:12:00,
2013-03-30 12:22:00,50.0,17.0,-100.00,West,269,10.0,25.0,27,0.00,,,0.00,604.000000,,2013-03-30 18:22:00,
2013-03-30 12:43:00,53.0,17.0,-100.00,West,261,10.0,27.0,24,0.00,,,0.00,848.000000,,2013-03-30 18:43:00,
2013-03-30 12:53:00,53.0,17.0,-100.00,West,261,10.0,27.0,24,0.00,,,0.00,848.000000,,2013-03-30 18:53:00,
2013-03-30 13:03:00,53.0,17.0,-100.00,West,261,10.0,27.0,24,0.00,,,0.00,848.000000,,2013-03-30 19:03:00,
2013-03-30 13:13:00,53.0,17.0,-100.00,West,261,10.0,27.0,24,0.00,,,0.00,848.000000,,2013-03-30 19:13:00,
2013-03-30 13:22:00,53.0,17.0,-100.00,West,261,10.0,27.0,24,0.00,,,0.00,848.000000,,2013-03-30 19:22:00,
2013-03-30 13:42:00,53.0,15.0,-100.00,West,280,11.0,31.0,22,0.00,,,0.00,843.000000,,2013-03-30 19:42:00,
2013-03-30 13:53:00,53.0,15.0,-100.00,West,280,11.0,31.0,22,0.00,,,0.00,843.000000,,2013-03-30 19:53:00,
2013-03-30 14:02:00,53.0,15.0,-100.00,West,280,11.0,31.0,22,0.00,,,0.00,843.000000,,2013-03-30 20:02:00,
2013-03-30 14:12:00,53.0,15.0,-100.00,West,280,11.0,31.0,22,0.00,,,0.00,843.000000,,2013-03-30 20:12:00,
2013-03-30 14:22:00,53.0,15.0,-100.00,West,280,11.0,31.0,22,0.00,,,0.00,843.000000,,2013-03-30 20:22:00,
2013-03-30 14:43:00,51.0,22.0,-100.00,WNW,283,10.0,24.0,32,0.00,,,0.00,662.000000,,2013-03-30 20:43:00,
2013-03-30 14:53:00,51.0,22.0,-100.00,WNW,283,10.0,24.0,32,0.00,,,0.00,662.000000,,2013-03-30 20:53:00,
2013-03-30 15:02:00,51.0,22.0,-100.00,WNW,283,10.0,24.0,32,0.00,,,0.00,662.000000,,2013-03-30 21:02:00,
2013-03-30 15:12:00,51.0,22.0,-100.00,WNW,283,10.0,24.0,32,0.00,,,0.00,662.000000,,2013-03-30 21:12:00,
2013-03-30 15:22:00,51.0,22.0,-100.00,WNW,283,10.0,24.0,32,0.00,,,0.00,662.000000,,2013-03-30 21:22:00,
2013-03-30 15:43:00,53.0,25.0,-100.00,WNW,290,7.0,22.0,34,0.00,,,0.00,658.000000,,2013-03-30 21:43:00,
2013-03-30 15:53:00,53.0,25.0,-100.00,WNW,290,7.0,22.0,34,0.00,,,0.00,658.000000,,2013-03-30 21:53:00,
2013-03-30 16:03:00,53.0,25.0,-100.00,WNW,290,7.0,22.0,34,0.00,,,0.00,658.000000,,2013-03-30 22:03:00,
2013-03-30 16:13:00,53.0,25.0,-100.00,WNW,290,7.0,22.0,34,0.00,,,0.00,658.000000,,2013-03-30 22:13:00,
2013-03-30 16:23:00,53.0,25.0,-100.00,WNW,290,7.0,22.0,34,0.00,,,0.00,658.000000,,2013-03-30 22:23:00,
2013-03-30 16:43:00,40.0,34.0,-100.00,SSW,211,6.0,28.0,80,0.00,,,0.00,494.000000,,2013-03-30 22:43:00,
2013-03-30 16:53:00,40.0,34.0,-100.00,SSW,211,6.0,28.0,80,0.00,,,0.00,494.000000,,2013-03-30 22:53:00,
2013-03-30 17:02:00,40.0,34.0,-100.00,SSW,211,6.0,28.0,80,0.00,,,0.00,494.000000,,2013-03-30 23:02:00,
2013-03-30 17:12:00,40.0,34.0,-100.00,SSW,211,6.0,28.0,80,0.00,,,0.00,494.000000,,2013-03-30 23:12:00,
2013-03-30 17:22:00,40.0,34.0,-100.00,SSW,211,6.0,28.0,80,0.00,,,0.00,494.000000,,2013-03-30 23:22:00,
2013-03-30 17:43:00,42.0,30.0,-100.00,WSW,256,3.0,16.0,63,0.00,,,0.00,225.000000,,2013-03-30 23:43:00,
2013-03-30 17:53:00,42.0,30.0,-100.00,WSW,256,3.0,16.0,63,0.00,,,0.00,225.000000,,2013-03-30 23:53:00,
2013-03-30 18:02:00,42.0,30.0,-100.00,WSW,256,3.0,16.0,63,0.00,,,0.00,225.000000,,2013-03-31 00:02:00,
2013-03-30 18:12:00,42.0,30.0,-100.00,WSW,256,3.0,16.0,63,0.00,,,0.00,225.000000,,2013-03-31 00:12:00,
2013-03-30 18:22:00,42.0,30.0,-100.00,WSW,256,3.0,16.0,63,0.00,,,0.00,225.000000,,2013-03-31 00:22:00,
2013-03-30 18:43:00,42.0,27.0,-100.00,WNW,284,6.0,17.0,56,0.01,,,0.01,265.000000,,2013-03-31 00:43:00,
2013-03-30 18:53:00,42.0,27.0,-100.00,WNW,284,6.0,17.0,56,0.01,,,0.01,265.000000,,2013-03-31 00:53:00,
2013-03-30 19:02:00,42.0,27.0,-100.00,WNW,284,6.0,17.0,56,0.01,,,0.01,265.000000,,2013-03-31 01:02:00,
2013-03-30 19:12:00,42.0,27.0,-100.00,WNW,284,6.0,17.0,56,0.01,,,0.01,265.000000,,2013-03-31 01:12:00,
2013-03-30 19:22:00,42.0,27.0,-100.00,WNW,284,6.0,17.0,56,0.01,,,0.01,265.000000,,2013-03-31 01:22:00,
2013-03-30 19:43:00,37.0,33.0,-100.00,South,169,2.0,15.0,84,0.01,,,0.02,54.000000,,2013-03-31 01:43:00,
2013-03-30 19:53:00,37.0,33.0,-100.00,South,169,2.0,15.0,84,0.01,,,0.02,54.000000,,2013-03-31 01:53:00,
2013-03-30 20:02:00,37.0,33.0,-100.00,South,169,2.0,15.0,84,0.01,,,0.02,54.000000,,2013-03-31 02:02:00,
2013-03-30 20:13:00,37.0,33.0,-100.00,South,169,2.0,15.0,84,0.01,,,0.02,54.000000,,2013-03-31 02:13:00,
2013-03-30 20:22:00,37.0,33.0,-100.00,South,169,2.0,15.0,84,0.01,,,0.02,54.000000,,2013-03-31 02:22:00,
2013-03-30 20:43:00,37.0,28.0,-100.00,SW,235,4.0,16.0,71,0.00,,,0.02,6.000000,,2013-03-31 02:43:00,
2013-03-30 20:52:00,37.0,28.0,-100.00,SW,235,4.0,16.0,71,0.00,,,0.02,6.000000,,2013-03-31 02:52:00,
2013-03-30 21:02:00,37.0,28.0,-100.00,SW,235,4.0,16.0,71,0.00,,,0.02,6.000000,,2013-03-31 03:02:00,
2013-03-30 21:12:00,37.0,28.0,-100.00,SW,235,4.0,16.0,71,0.00,,,0.02,6.000000,,2013-03-31 03:12:00,
2013-03-30 21:22:00,37.0,28.0,-100.00,SW,235,4.0,16.0,71,0.00,,,0.02,6.000000,,2013-03-31 03:22:00,
2013-03-30 21:44:00,34.0,30.0,-100.00,NW,305,3.0,10.0,85,0.00,,,0.02,1.000000,,2013-03-31 03:44:00,
2013-03-30 21:54:00,34.0,30.0,-100.00,NW,305,3.0,10.0,85,0.00,,,0.02,1.000000,,2013-03-31 03:54:00,
2013-03-30 22:03:00,34.0,-99.9,-100.00,NW,305,3.0,10.0,85,0.00,,,0.02,1.000000,,2013-03-31 04:03:00,
2013-03-30 22:13:00,34.0,30.0,-100.00,NW,305,3.0,10.0,85,0.00,,,0.02,1.000000,,2013-03-31 04:13:00,
2013-03-30 22:23:00,34.0,30.0,-100.00,NW,305,3.0,10.0,85,0.00,,,0.02,1.000000,,2013-03-31 04:23:00,
2013-03-30 22:43:00,34.0,24.0,-100.00,WNW,299,3.0,7.0,67,0.00,,,0.02,1.000000,,2013-03-31 04:43:00,
2013-03-30 22:53:00,34.0,24.0,-100.00,WNW,299,3.0,7.0,67,0.00,,,0.02,1.000000,,2013-03-31 04:53:00,
2013-03-30 23:02:00,34.0,24.0,-100.00,WNW,299,3.0,7.0,67,0.00,,,0.02,1.000000,,2013-03-31 05:02:00,
2013-03-30 23:12:00,34.0,24.0,-100.00,WNW,299,3.0,7.0,67,0.00,,,0.02,1.000000,,2013-03-31 05:12:00,
2013-03-30 23:22:00,34.0,24.0,-100.00,WNW,299,3.0,7.0,67,0.00,,,0.02,1.000000,,2013-03-31 05:22:00,
2013-03-30 23:42:00,30.0,26.0,-100.00,NW,314,1.0,8.0,84,0.00,,,0.02,1.000000,,2013-03-31 05:42:00,
2013-03-30 23:53:00,30.0,26.0,-100.00,NW,314,1.0,8.0,84,0.00,,,0.02,1.000000,,2013-03-31 05:53:00,